Mountain Home, AR

7:11 PM CDT on October 20, 2017 (GMT -0500)
Baxter County Regional

Weather History for KBPK - November, 2012

Change the Weather History Date:

Friday, November 9, 2012

  Actual Average (KFLP) Record (KFLP)
Temperature  
Mean Temperature 60 °F -  
Max Temperature 72 °F 59 °F 84 °F (2006)
Min Temperature 48 °F 40 °F 28 °F (2014)
Degree Days  
Heating Degree Days 5    
Growing Degree Days 10 (Base 50)    
Moisture  
Dew Point 47 °F    
Average Humidity 65    
Maximum Humidity 72    
Minimum Humidity 49    
Precipitation  
Precipitation 0.00 in - - ()
Sea Level Pressure  
Sea Level Pressure 30.02 in    
Wind  
Wind Speed 8 mph (SSE)    
Max Wind Speed 17 mph    
Max Gust Speed 26 mph    
Visibility 10 miles    
Events      
Averages and records for this station are not official NWS values.
T = Trace of Precipitation, MM = Missing Value Source: NWS Daily Summary

Daily Weather History Graph

Daily Weather History Graph

Search for Another Location

Airport or City:

Trip Planner

Search our weather history database for the weather conditions in past years. The results will help you decide how hot, cold, wet, or windy it might be!

Date:

Astronomy

Nov. 09, 2012 Rise Set
Actual Time 6:41 AM CST 5:05 PM CST
Civil Twilight 6:14 AM CST 5:32 PM CST
Nautical Twilight 5:43 AM CST 6:03 PM CST
Astronomical Twilight 5:13 AM CST 6:33 PM CST
Moon 1:48 AM CST (11/9) 2:12 PM CST (11/9)
Length of Visible Light 11h 18m
Length of Day
10h 24m
Waning Crescent, 23% of the Moon is Illuminated
Nov 9
Waning Crescent
Nov 13
New
Nov 20
First Quarter
Nov 28
Full
Dec 6
Last Quarter

Hourly Weather History & Observations

Time (CST) Temp. Dew Point Humidity Pressure Visibility Wind Dir Wind Speed Gust Speed Precip Events Conditions
12:53 AM 48.0 °F 39.0 °F 71% 30.06 in 10.0 mi SE 5.8 mph - N/A   Clear
1:53 AM 48.0 °F 39.0 °F 71% 30.05 in 10.0 mi SE 5.8 mph - N/A   Clear
2:53 AM 48.0 °F 39.0 °F 71% 30.06 in 10.0 mi SE 5.8 mph - N/A   Clear
3:53 AM 48.0 °F 39.0 °F 71% 30.04 in 10.0 mi ESE 4.6 mph - N/A   Clear
4:53 AM 48.0 °F 39.0 °F 71% 30.06 in 10.0 mi ESE 4.6 mph - N/A   Clear
5:53 AM 48.9 °F 39.9 °F 71% 30.05 in 10.0 mi SE 5.8 mph - N/A   Clear
6:53 AM 50.0 °F 41.0 °F 71% 30.06 in 10.0 mi SSE 6.9 mph - N/A   Clear
7:53 AM 53.1 °F 44.1 °F 71% 30.07 in 10.0 mi SSE 5.8 mph - N/A   Clear
8:53 AM 59.0 °F 48.0 °F 67% 30.06 in 10.0 mi South 9.2 mph - N/A   Clear
9:53 AM 63.0 °F 51.1 °F 65% 30.06 in 9.0 mi South 12.7 mph 24.2 mph N/A   Partly Cloudy
10:38 AM 62.6 °F 51.8 °F 68% 30.07 in 9.0 mi South 12.7 mph 23.0 mph N/A   Mostly Cloudy
10:53 AM 64.9 °F 53.1 °F 65% 30.06 in 9.0 mi SSW 12.7 mph 21.9 mph N/A   Mostly Cloudy
11:15 AM 64.4 °F 53.6 °F 68% 30.06 in 9.0 mi South 17.3 mph 26.5 mph N/A   Scattered Clouds
11:53 AM 66.0 °F 53.1 °F 63% 30.03 in 9.0 mi SSW 16.1 mph 23.0 mph N/A   Clear
12:53 PM 68.0 °F 53.1 °F 59% 30.00 in 9.0 mi South 12.7 mph 20.7 mph N/A   Clear
1:53 PM 69.1 °F 52.0 °F 54% 29.98 in 10.0 mi South 13.8 mph 18.4 mph N/A   Clear
2:53 PM 72.0 °F 52.0 °F 49% 29.96 in 10.0 mi South 13.8 mph 20.7 mph N/A   Clear
3:53 PM 70.0 °F 52.0 °F 53% 29.96 in 10.0 mi South 8.1 mph 17.3 mph N/A   Clear
4:53 PM 66.0 °F 52.0 °F 60% 29.97 in 10.0 mi South 16.1 mph 23.0 mph N/A   Clear
5:53 PM 63.0 °F 52.0 °F 67% 29.99 in 10.0 mi SSE 6.9 mph 17.3 mph N/A   Clear
6:53 PM 60.1 °F 51.1 °F 72% 29.99 in 10.0 mi SSE 8.1 mph - N/A   Clear
7:53 PM 59.0 °F 48.0 °F 67% 30.00 in 10.0 mi SE 6.9 mph - N/A   Clear
8:53 PM 57.9 °F 46.0 °F 65% 30.00 in 10.0 mi SSE 6.9 mph - N/A   Clear
9:53 PM 59.0 °F 45.0 °F 60% 30.00 in 10.0 mi SSE 8.1 mph - N/A   Clear
10:53 PM 59.0 °F 44.1 °F 58% 29.99 in 10.0 mi SSE 9.2 mph - N/A   Clear
11:53 PM 59.0 °F 44.1 °F 58% 29.99 in 10.0 mi SSE 6.9 mph - N/A   Clear